TITAN 3C TRANSTAGE DEB, 26050

Orbit data source: Space-Track

TITAN 3C TRANSTAGE DEB, 26050 is space debris in HEO originally from a launch on Tue, 21 Dec 1965 UTC launched from the Air Force Eastern Test Range (AFETR). Debris objects in space refer to the collection of defunct objects orbiting the Earth. Examples of debris include non-operational satellites, rocket bodies, and fragments generated from explosions, collisions, or faulty payload assembly.

Loading next visibility...
Identifier
26050, 1965-108AJ
Orbit
HEO
Country
Flag of USUS
Related business
Manufacturer
Unknown
Mission
Spacecraft
Bus & Motor
Unknown
Mass
Unknown
Launch date (UTC)
1965-12-21 (60 years ago)
Launch vehicle
Unknown
Launch site
Air Force Eastern Test Range (AFETR)
Object type
Payload
Rocket body
Debris
Shape & HBR
Unknown shape, 0.1 m
Radar Cross Section
Medium (>0.1 m² and <1 m²)

Expand to show TLE details & history
Last TLE update: 23 hours ago

TLE from 23 hours ago
0 TITAN 3C TRANSTAGE DEB
1 26050U 65108AJ  25342.25615963 -.00000087  00000-0  36554-2 0  9997
2 26050  26.6118 303.6420 6615183 143.6630 288.2249  2.69785225261066
Epoch: 2025-12-08T06:08Z
TLE epoch observation values (Epoch: 2025-12-08T06:08:52.192Z)
Latitude
-0.00002°
Longitude
134.12537°
Altitude
19,841.104 km
Speed
3.481 km/s
True Right ascension
20h 14m 24s
True Declination
0° 00' 00"
Sunlit
Object was in daylight at epoch
Visualization orbit readout
Latitude
Unknown
Longitude
Unknown
Altitude
Unknown
Speed
Unknown
Apparent Right ascension
Unknown
Apparent Declination
Unknown
Sunlit
N/A
Visualization observer readout
Local Sidereal Time
03:36:37
Azimuth
Unknown
Elevation
Unknown
Doppler factor
Unknown
Orbital elements
Apogee altitude
29,842.982 km
Perigee altitude
1,000.768 km
Semi-major axis
21,800.012 km
Eccentricity
0.66152
Inclination
26.6118°
RAAN
303.642°
Arg. of periapsis
143.663°
True anomaly
216.40336°
Mean anomaly
288.2249°
Eccentric anomaly
252.14769°
Mean motion
0.67431 °/min
Orbital period
533.88 mins
BSTAR
0.0036554
Loading maneuver chart data...
Computing Atmospheric mass density...

Documentation

Showing up to 5 results
|